Location: Pine Mountain Observatory
(43.7910°N, 120.9377°W)
Time: 14:55:06
(UTC-08:00)

Cosmos 1867 - Visible Passes

Search period start: 11 December 2017 00:00
Search period end: 21 December 2017 00:00
Orbit: 778 x 798 km, 65.0° (Epoch: 10 December)

Date Brightness Start Highest point End Pass type
(mag) Time Alt. Az. Time Alt. Az. Time Alt. Az.
11 Dec 5.9 04:52:45 11° N 04:52:45 11° N 04:53:08 10° N visible
17 Dec 5.8 06:54:21 10° N 06:56:20 12° NNE 06:58:19 10° NE visible
18 Dec 6.0 06:23:45 10° NNE 06:24:16 10° NNE 06:24:48 10° NNE visible
20 Dec 5.5 07:01:51 10° NNW 07:05:57 21° NE 07:10:01 10° E visible
